Temp
5 5 4 4 4 4 3 3 3 3 3 3 3 3 4 4 4 4 4 4 4 4 4 3 3 3 3 3 3 3 3 3 3 3 3 3 3 3 3 3 3 3
5 5 5 4 4 4 4 3 3 3 3 3 3 3 3 4 4 4 4 4 4 4 3 3 3 3 3 3 3 3 3 3 3 3 3 3 3 3 3 3 3 3
5 5 5 4 4 3 3 4 3 3 3 3 3 3 4 4 4 4 4 4 4 3 3 3 3 3 3 3 3 3 3 3 3 3 3 3 3 2 3 3 3 3
4 4 4 4 3 3 3 3 3 3 3 3 3 3 4 4 4 4 3 3 3 3 3 3 3 3 3 3 3 3 3 3 2 2 2 3 3 2 2 2 3 3
4 4 4 4 3 3 3 3 3 3 3 3 3 3 3 3 4 4 4 3 3 3 3 3 3 3 3 3 3 3 3 2 2 2 2 2 2 2 2 2 2 3
4 4 4 4 3 3 3 3 3 3 2 3 3 3 3 3 3 4 4 3 3 3 3 3 3 3 3 3 3 3 2 2 2 2 2 2 2 2 2 2 2 2
4 4 4 4 4 3 3 3 3 3 3 3 3 3 3 3 3 3 3 3 3 3 3 3 3 3 3 3 3 3 3 2 2 2 2 2 2 2 2 2 2 2
4 4 4 3 3 3 3 3 3 3 3 3 3 3 3 3 3 3 3 3 3 3 3 3 3 3 3 3 3 3 3 3 3 2 2 2 2 2 2 2 2 2
4 4 4 3 3 3 3 3 3 3 3 3 3 3 3 3 3 3 3 3 3 3 3 3 3 3 3 3 3 3 3 3 3 2 2 2 2 2 2 2 2 2
3 3 3 3 3 3 3 3 3 2 2 3 3 3 3 3 3 3 3 3 3 3 3 3 3 3 3 3 3 3 3 3 3 2 2 2 2 1 1 1 1 1
3 3 3 3 2 3 3 2 2 2 2 3 3 3 3 2 2 3 3 3 3 3 3 3 3 3 3 3 3 3 3 3 3 2 2 2 1 1 1 1 1 1
3 3 3 2 2 3 3 2 2 2 2 3 2 2 2 2 2 2 3 3 3 3 3 3 3 3 3 3 3 3 3 3 3 2 2 2 2 1 1 1 1 1
3 3 3 2 2 2 2 2 2 2 2 3 2 2 2 2 2 2 3 3 3 3 3 3 3 3 3 3 3 3 3 3 3 3 3 2 2 1 1 1 1 1
3 3 3 2 2 2 2 2 2 2 2 2 2 2 2 2 2 2 3 3 3 3 3 3 3 3 3 3 3 3 3 3 3 3 2 2 2 1 1 1 1 1
3 3 2 2 2 2 2 2 2 2 2 2 2 2 2 2 2 2 2 2 2 2 2 2 3 2 2 3 2 2 2 3 3 3 2 2 2 1 1 1 1 1
3 3 2 2 2 2 1 1 1 2 2 2 2 2 2 2 2 2 2 2 2 2 2 2 2 2 2 2 2 2 2 2 3 3 2 2 2 1 1 1 1 1
3 3 2 2 1 1 1 1 1 1 2 1 2 2 2 2 2 2 2 2 2 2 2 2 2 2 2 2 2 2 2 2 2 2 2 2 2 1 1 1 1 1
2 2 2 2 1 1 1 1 1 1 1 1 1 1 2 2 2 2 2 2 2 2 2 2 2 2 2 2 2 2 2 2 2 2 2 2 2 1 1 1 1 1
2 2 2 1 1 1 1 1 1 1 1 1 1 1 1 1 1 2 2 2 1 1 1 1 1 2 2 2 2 2 2 2 2 2 2 2 2 2 1 1 1 1
2 2 1 1 1 1 1 0 1 1 1 1 1 1 1 1 1 1 1 1 1 1 1 1 1 1 1 1 1 1 2 2 2 2 2 2 2 2 2 1 1 1
1 1 1 1 1 1 0 0 0 1 1 0 0 0 0 1 1 1 1 1 1 1 1 1 1 1 1 1 1 1 1 1 1 1 1 1 1 1 1 1 1 1
1 1 1 1 1 0 0 0 0 0 0 -0 -0 -0 0 0 0 0 0 0 0 0 0 0 0 1 1 1 1 1 1 1 1 1 1 0 1 1 1 1 1 0
1 1 0 0 0 0 0 0 0 -0 -0 -1 -1 -0 -0 -0 -0 0 0 0 0 -0 -0 -0 -0 0 0 0 0 0 0 1 1 0 -0 -0 -0 -0 -0 -0 0 -0
0 0 0 1 0 -0 -0 -0 -0 -0 -0 -1 -1 -1 -0 -0 -0 -0 0 0 -0 -0 -0 -0 -0 -0 -0 -0 -0 -0 0 0 -0 -1 -1 -1 -1 -1 -1 -1 -1 -1
0 -0 0 1 0 -0 -0 -0 -1 -0 -0 -1 -1 -1 -1 -1 -1 -0 -0 -0 -0 -1 -1 -1 -1 -1 -1 -1 -1 -1 -1 -1 -1 -2 -1 -1 -1 -1 -1 -1 -2 -2
0 -0 -0 0 0 0 -0 -0 -1 -1 -1 -1 -1 -1 -1 -1 -1 -1 -1 -1 -1 -1 -1 -1 -1 -1 -1 -1 -1 -1 -1 -2 -2 -2 -2 -1 -2 -2 -2 -2 -2 -2
Height
3122 3122 3122 3123 3124 3125 3125 3126 3127 3129 3131 3133 3135 3137 3138 3140 3141 3142 3143 3144 3145 3146 3147 3147 3148 3149 3150 3151 3151 3152 3153 3154 3154 3155 3155 3155 3155 3156 3156 3157 3158 3159
3121 3121 3121 3122 3122 3123 3124 3125 3126 3128 3130 3132 3134 3135 3137 3139 3140 3141 3142 3143 3144 3145 3146 3146 3147 3147 3148 3149 3150 3151 3152 3152 3153 3153 3154 3154 3154 3154 3155 3156 3156 3157
3120 3119 3119 3120 3121 3122 3123 3123 3125 3127 3129 3131 3132 3134 3136 3138 3139 3140 3141 3142 3143 3144 3144 3145 3146 3146 3147 3148 3149 3150 3151 3151 3152 3152 3152 3153 3153 3153 3154 3155 3155 3156
3119 3119 3118 3118 3119 3120 3121 3122 3124 3126 3127 3129 3131 3133 3135 3137 3138 3139 3140 3141 3141 3142 3143 3144 3144 3145 3146 3147 3148 3148 3149 3150 3151 3151 3151 3151 3152 3152 3153 3154 3154 3155
3117 3118 3117 3116 3117 3118 3120 3121 3123 3124 3126 3127 3130 3132 3134 3135 3137 3138 3139 3140 3140 3141 3142 3142 3143 3144 3145 3146 3146 3147 3148 3149 3149 3150 3150 3151 3151 3151 3152 3153 3154 3154
3116 3116 3116 3116 3116 3118 3119 3120 3121 3123 3125 3127 3129 3131 3133 3135 3136 3137 3138 3139 3139 3140 3140 3141 3142 3143 3144 3144 3145 3146 3147 3147 3148 3148 3149 3150 3150 3151 3151 3152 3153 3153
3114 3114 3114 3114 3115 3116 3118 3119 3120 3122 3124 3126 3128 3130 3132 3134 3135 3136 3137 3138 3138 3139 3139 3140 3141 3142 3142 3143 3144 3144 3145 3146 3146 3147 3148 3149 3149 3150 3151 3151 3152 3153
3111 3111 3111 3111 3112 3114 3116 3117 3119 3121 3122 3125 3127 3129 3131 3133 3134 3135 3136 3137 3137 3138 3139 3140 3140 3141 3141 3142 3142 3143 3143 3144 3145 3146 3147 3147 3148 3149 3150 3151 3152 3152
3109 3109 3108 3108 3109 3111 3113 3115 3117 3119 3121 3124 3126 3128 3130 3131 3133 3134 3135 3136 3136 3137 3138 3139 3139 3139 3140 3140 3141 3141 3142 3143 3144 3144 3145 3146 3147 3149 3150 3150 3151 3152
3106 3106 3106 3107 3108 3110 3111 3113 3115 3117 3120 3123 3124 3126 3129 3130 3131 3133 3134 3135 3136 3137 3137 3138 3138 3138 3138 3139 3139 3140 3140 3141 3142 3143 3144 3145 3146 3148 3149 3150 3151 3151
3102 3103 3104 3106 3107 3108 3110 3111 3113 3116 3118 3121 3123 3125 3128 3129 3130 3132 3133 3134 3135 3135 3136 3137 3137 3137 3138 3138 3138 3138 3139 3140 3141 3142 3143 3144 3145 3147 3148 3149 3150 3150
3099 3101 3103 3104 3104 3105 3107 3109 3111 3114 3117 3119 3121 3124 3126 3128 3130 3132 3132 3133 3134 3135 3135 3136 3136 3137 3137 3137 3137 3137 3138 3139 3140 3140 3141 3142 3144 3145 3147 3148 3149 3149
3096 3097 3099 3100 3100 3101 3103 3105 3107 3111 3115 3117 3119 3122 3124 3126 3129 3130 3131 3132 3133 3134 3134 3135 3135 3136 3136 3136 3136 3136 3137 3138 3139 3139 3140 3141 3142 3144 3145 3145 3146 3146
3093 3094 3096 3098 3098 3098 3100 3102 3104 3109 3113 3115 3118 3120 3122 3125 3127 3129 3130 3131 3133 3133 3134 3134 3134 3135 3135 3135 3135 3135 3136 3137 3137 3139 3139 3140 3141 3143 3144 3143 3143 3144
3090 3091 3093 3095 3097 3097 3098 3100 3103 3106 3110 3113 3116 3118 3121 3123 3126 3128 3128 3130 3132 3133 3133 3133 3133 3134 3134 3134 3134 3135 3135 3135 3136 3138 3139 3140 3141 3142 3143 3144 3144 3144
3088 3089 3090 3092 3094 3096 3097 3099 3102 3104 3107 3110 3113 3116 3119 3122 3124 3126 3127 3129 3131 3132 3132 3132 3133 3133 3133 3133 3133 3134 3134 3134 3135 3137 3138 3139 3141 3141 3143 3143 3144 3145
3085 3086 3087 3089 3091 3094 3096 3098 3101 3102 3104 3108 3111 3114 3117 3121 3123 3124 3126 3128 3129 3130 3131 3131 3132 3133 3133 3133 3133 3133 3133 3134 3135 3136 3137 3139 3140 3140 3142 3142 3143 3144
3083 3083 3084 3086 3089 3092 3094 3096 3099 3100 3102 3105 3109 3112 3116 3119 3121 3123 3125 3126 3127 3128 3129 3130 3131 3132 3132 3132 3132 3133 3133 3133 3134 3135 3137 3138 3139 3140 3141 3142 3142 3143
3080 3080 3082 3084 3087 3089 3092 3094 3097 3099 3101 3103 3107 3110 3114 3117 3119 3121 3123 3124 3125 3127 3128 3129 3130 3131 3131 3131 3132 3132 3132 3133 3133 3134 3135 3137 3138 3139 3139 3140 3141 3142
3077 3079 3080 3082 3084 3087 3090 3092 3096 3098 3099 3102 3106 3109 3112 3115 3117 3119 3121 3122 3123 3125 3126 3127 3128 3129 3129 3130 3131 3131 3131 3132 3132 3133 3134 3135 3136 3137 3138 3139 3140 3141
3076 3077 3079 3081 3082 3085 3087 3090 3093 3096 3098 3101 3104 3107 3110 3113 3115 3117 3119 3120 3121 3123 3124 3125 3126 3127 3127 3128 3129 3130 3130 3131 3131 3132 3133 3134 3135 3135 3136 3137 3138 3139
3075 3076 3078 3080 3081 3083 3086 3089 3092 3094 3096 3099 3102 3105 3108 3111 3113 3115 3116 3118 3119 3120 3122 3123 3124 3125 3125 3126 3127 3128 3128 3129 3130 3130 3131 3132 3133 3134 3135 3135 3135 3136
3075 3076 3077 3078 3080 3082 3085 3088 3090 3092 3094 3097 3100 3103 3105 3108 3110 3112 3113 3115 3116 3118 3119 3120 3122 3122 3123 3123 3124 3125 3126 3126 3127 3128 3129 3130 3131 3132 3132 3133 3133 3134
3075 3077 3077 3078 3079 3082 3084 3086 3088 3089 3092 3094 3097 3100 3103 3105 3107 3109 3110 3112 3113 3115 3116 3117 3118 3119 3120 3121 3122 3122 3123 3124 3125 3126 3126 3127 3128 3129 3129 3130 3131 3132
3076 3077 3078 3079 3080 3081 3082 3084 3086 3088 3090 3092 3095 3097 3099 3102 3104 3106 3107 3108 3110 3111 3113 3114 3115 3116 3117 3118 3119 3120 3120 3121 3122 3123 3124 3125 3126 3126 3127 3128 3129 3129
3076 3076 3078 3079 3080 3080 3081 3083 3085 3087 3089 3091 3092 3093 3095 3097 3100 3102 3104 3105 3106 3108 3109 3110 3111 3112 3114 3115 3116 3117 3117 3118 3119 3120 3121 3122 3123 3124 3124 3125 3125 3126
Wind_Speed
17 14 12 13 17 18 18 19 20 20 20 19 18 18 17 17 17 17 17 17 16 15 15 15 14 14 14 14 13 12 12 12 12 12 12 13 13 14 13 13 13 12
20 16 14 13 16 18 19 19 19 20 20 19 19 19 18 17 17 17 17 17 16 14 15 15 15 15 14 14 13 12 12 12 11 11 11 11 11 12 13 13 13 13
20 17 15 14 15 18 19 19 19 21 21 21 20 20 18 17 17 17 16 15 15 14 15 15 16 16 14 14 14 12 12 12 12 11 11 11 11 11 12 13 13 14
20 18 16 15 16 18 20 20 21 23 23 22 21 19 18 18 17 17 16 15 14 14 15 15 16 16 15 15 14 14 13 13 13 12 12 12 12 12 12 13 14 14
19 18 18 17 17 19 21 21 22 22 21 20 20 19 18 18 17 16 15 14 14 14 14 15 15 15 16 16 16 15 15 15 14 13 13 13 13 13 13 13 14 14
19 19 20 19 18 19 21 22 22 22 21 21 20 19 18 17 16 16 14 13 14 15 14 14 14 15 15 16 16 16 16 16 15 15 14 13 13 13 13 13 14 14
21 22 22 21 20 20 21 23 23 24 24 22 20 19 19 18 16 15 14 14 15 15 14 14 14 14 15 16 16 16 16 16 16 16 15 13 13 13 13 14 14 15
24 24 25 24 22 21 22 23 24 26 26 23 20 21 20 18 16 15 15 15 15 14 13 13 14 14 15 15 15 16 16 16 16 16 15 14 13 13 14 15 15 15
27 27 28 26 25 24 23 24 25 26 26 22 21 21 20 18 17 16 16 16 15 14 13 13 14 14 14 14 15 15 16 15 15 16 15 15 15 14 14 15 15 16
29 30 30 28 26 25 24 25 26 26 26 23 21 21 20 18 16 16 17 16 15 15 14 14 14 15 15 14 14 15 15 14 15 15 16 16 16 15 14 15 15 16
30 31 29 28 27 25 25 26 26 26 25 24 23 22 20 17 16 17 17 16 15 15 14 14 15 15 15 14 14 14 14 13 14 15 16 17 17 16 15 15 15 16
31 30 28 28 28 27 26 27 26 26 26 25 24 23 20 18 19 20 18 16 16 15 14 14 14 14 14 14 14 13 12 12 14 16 16 17 18 18 16 15 16 17
32 30 28 29 30 28 28 28 27 27 26 25 25 25 22 21 22 21 18 16 15 14 14 12 11 10 11 12 11 11 12 13 16 17 16 16 18 19 18 18 19 19
31 30 29 30 32 30 29 30 29 28 27 26 26 26 25 25 24 21 18 15 14 14 12 10 8 9 10 10 9 10 12 14 15 15 15 17 19 19 19 19 18 17
29 30 29 29 32 31 29 30 30 29 29 28 27 27 26 25 23 20 18 16 15 13 11 9 8 8 9 9 9 10 12 13 13 13 14 16 18 20 19 17 16 15
27 27 28 29 32 32 30 29 29 29 31 30 29 28 27 25 23 20 19 18 16 13 11 9 9 8 8 9 9 10 12 13 12 12 13 14 17 20 20 18 17 18
23 24 27 30 32 32 30 29 29 30 32 32 30 30 29 26 23 22 21 20 17 13 11 10 9 8 8 9 10 11 12 13 12 13 13 15 17 19 20 21 20 20
21 24 27 29 31 31 29 30 32 32 33 33 32 31 31 28 25 24 23 21 17 14 12 11 11 11 10 10 10 10 11 11 11 12 13 14 17 18 19 21 21 21
20 24 26 27 29 30 29 31 33 32 32 33 33 32 31 29 27 26 24 21 19 16 14 13 14 14 12 11 10 10 10 10 11 13 13 14 16 18 19 20 21 21
18 22 24 25 27 29 30 31 33 33 32 33 32 32 31 30 28 26 24 22 20 18 17 16 16 15 14 13 12 12 12 12 12 14 15 15 17 19 20 20 21 22
15 19 21 23 25 28 29 32 34 34 34 34 34 32 30 29 27 26 25 23 21 21 20 18 18 17 17 17 16 15 15 14 14 16 17 18 19 20 21 22 22 23
15 17 20 24 26 27 28 30 33 34 33 33 35 35 32 27 26 27 26 25 24 23 22 21 20 20 20 19 19 18 18 17 17 17 18 19 20 21 22 23 23 23
14 16 19 23 25 26 28 31 33 33 33 33 35 37 36 31 27 27 27 27 26 25 24 23 22 22 22 21 21 21 21 20 19 19 20 20 21 22 23 24 24 23
10 12 16 19 22 25 27 31 33 32 33 35 35 36 38 35 31 29 28 27 27 27 26 25 24 24 24 23 23 22 22 21 19 20 22 23 23 24 24 24 24 23
9 11 14 17 20 22 23 27 31 30 30 32 34 35 37 37 34 32 30 29 29 28 28 27 27 27 27 26 26 25 25 24 23 23 25 26 27 28 26 25 25 26
14 16 17 18 21 22 22 22 27 30 29 30 32 34 36 39 39 36 33 32 31 31 30 29 29 28 27 27 28 28 28 28 28 27 27 28 29 29 27 26 26 27
Wind_Direction
248 244 233 226 225 222 218 217 220 221 221 218 216 217 216 214 214 214 214 216 213 210 213 215 216 217 217 219 220 218 219 219 217 218 222 224 225 224 221 222 225 225
243 242 237 232 228 221 215 214 216 217 215 211 213 217 216 214 216 215 215 217 216 213 216 219 220 220 220 221 221 220 219 219 218 218 220 220 222 222 220 219 220 223
241 238 233 230 228 223 220 216 213 212 208 207 211 216 214 213 216 216 217 219 219 217 219 221 222 222 222 222 222 221 219 218 217 217 219 220 220 220 220 218 215 215
246 240 231 228 223 221 224 221 215 211 206 204 210 214 213 212 215 215 215 217 218 219 219 221 222 220 221 222 223 222 221 220 217 216 219 221 220 219 216 213 210 209
248 238 230 230 223 219 224 224 219 214 207 205 208 212 212 212 212 213 212 212 217 221 219 218 217 215 217 221 223 224 223 224 221 218 218 218 217 216 213 208 205 204
248 236 230 231 227 221 224 225 222 216 211 209 208 208 211 211 210 212 212 211 215 219 217 212 209 210 216 221 222 224 224 224 223 221 219 217 214 211 208 205 203 202
243 235 231 232 228 222 223 225 223 218 213 209 204 204 208 209 210 212 213 211 212 214 211 206 204 207 214 219 221 223 225 224 224 222 220 217 212 206 203 202 202 200
238 233 230 230 225 219 221 223 222 219 214 206 202 202 203 204 208 210 210 210 210 210 206 202 204 207 210 215 218 220 222 223 224 223 220 215 211 205 201 200 199 197
239 234 230 227 221 216 218 221 221 218 213 205 200 200 201 202 203 205 208 208 206 206 204 200 203 209 210 211 215 218 220 222 223 222 220 216 212 206 201 200 197 196
242 237 231 224 220 218 217 220 221 217 210 202 196 197 201 201 200 203 205 203 203 206 206 200 199 206 211 211 214 217 219 220 221 220 219 216 212 206 199 198 197 196
243 239 232 223 220 219 218 219 220 216 206 198 195 197 196 194 199 207 205 199 202 208 208 202 198 201 206 210 214 217 218 219 217 216 216 213 209 204 198 197 197 195
246 243 235 224 218 216 218 219 217 213 204 195 196 195 190 193 205 209 205 199 203 208 209 207 203 198 201 208 213 216 217 213 208 209 210 207 204 201 197 196 197 194
247 243 236 227 218 212 214 217 215 210 202 196 196 194 189 196 206 205 200 200 207 211 210 209 203 196 201 210 215 213 209 206 206 207 207 203 200 198 196 196 196 193
246 241 236 228 220 215 211 212 213 206 199 197 198 195 192 196 202 199 193 199 209 211 209 204 193 192 203 213 218 215 211 209 210 208 204 202 199 196 197 199 195 190
243 243 239 229 222 217 212 212 211 199 194 198 198 196 195 195 197 195 191 200 210 209 205 199 191 190 197 207 216 219 220 220 218 211 203 201 199 196 197 198 192 187
240 242 237 227 220 217 213 216 212 195 191 197 197 197 199 197 197 197 195 201 206 205 203 202 200 195 193 202 212 218 224 225 223 217 205 198 199 199 197 194 192 192
235 235 229 222 218 215 213 217 212 196 192 197 198 199 202 200 200 203 202 202 202 202 205 210 216 210 198 201 210 216 222 224 222 219 208 197 197 201 201 199 197 198
230 228 225 220 216 212 213 216 210 197 194 198 200 202 204 202 204 207 208 206 203 203 208 217 226 227 215 207 209 214 220 222 221 222 217 206 199 200 204 206 206 207
228 224 223 221 213 207 212 216 209 200 197 199 202 204 204 204 207 210 212 210 208 211 217 222 229 231 225 216 213 216 220 222 223 224 224 217 206 202 204 206 207 210
224 221 219 220 212 206 212 214 206 202 200 199 202 206 206 207 210 214 216 214 214 218 221 225 230 231 228 224 223 224 224 223 223 224 226 225 217 212 211 209 206 208
227 220 212 213 210 208 214 211 202 200 199 199 202 205 207 210 213 217 220 220 219 222 223 225 229 231 232 233 231 230 228 227 226 225 226 226 223 221 220 218 213 211
230 225 212 208 210 214 214 207 201 200 199 200 205 208 209 212 216 219 223 223 223 225 225 226 229 231 234 236 236 234 232 231 230 227 226 226 227 226 226 226 223 221
227 227 216 208 211 215 211 204 203 205 204 204 210 213 213 215 218 221 223 224 226 227 226 226 227 230 233 237 238 237 235 234 233 228 225 227 228 228 228 228 228 227
231 225 223 219 217 215 213 213 216 216 211 209 213 218 219 220 222 225 226 226 225 225 225 224 224 227 232 235 236 237 237 236 233 227 224 227 230 230 229 229 230 231
232 221 226 231 230 226 223 219 218 218 216 213 214 218 220 221 222 225 228 228 225 223 222 221 222 226 230 232 234 235 236 237 235 232 229 230 231 231 230 232 235 236
220 211 209 215 225 232 233 223 214 214 214 213 216 220 222 222 223 225 227 227 223 220 219 220 222 226 231 237 242 243 242 243 243 241 238 236 235 236 237 238 240 239